Flag for Saudi Arabia Weather past 2 weeks in Jeddah, Saudi Arabia

Now
93 °F

Partly cloudy.


Feels Like: 101 °F
Forecast: 89 / 98 °F
Wind: 8 mph from Northwest

Location: Jeddah King Abdul Aziz International Airport

Current Time: Aug 27, 2015 at 11:10:57 PM

Latest Report: Aug 27, 2015 at 10:00 PM


Visibility: N/A

Pressure: 29.71 "Hg

Humidity: 49%

Dew point: 72 °F

Location of JeddahLocation

Historic Weather in Jeddah — Graph

°F

Jeddah temperature yesterday

Maximum temperature yesterday: 102 °F (at 9:00 PM)
Minimum temperature yesterday: 88 °F (at 8:00 PM)
Average temperature yesterday: 93 °F

Past Weeks' High & Low Weather Summary

 TemperatureHumidityPressure
High120 °F (Aug 20, 12:00 PM)84% (Aug 24, 5:00 AM)29.77 "Hg (Aug 24, 5:00 AM)
Low84 °F (Aug 16, 5:00 AM)5% (Aug 20, 12:00 PM)29.50 "Hg (Aug 20, 2:00 PM)
Average94 °F54%29.60 "Hg
* Reported Aug 12 10:00 PM — Aug 27 10:00 PM, Jeddah, Weather by CustomWeather, © 2015

Note: Actual official high and low records may vary slightly from our data, if they occured in-between our weather recording intervals... More about our weather records

Advertising

Jeddah weather history for previous 24 hours

 ConditionsComfort  
Time TempWeatherWind HumidityBarometerVisibility
10:00 PM
Thu, Aug 27
93 °FPartly cloudy.8 mph49%29.71 "HgN/A
9:00 PM93 °FPartly cloudy.9 mph47%29.71 "HgN/A
8:00 PM95 °FPartly cloudy.8 mph39%29.68 "HgN/A
7:00 PM95 °FPartly cloudy.12 mph39%29.68 "HgN/A
6:00 PM95 °FSunny.14 mph44%29.65 "Hg10 mi
5:00 PM97 °FPassing clouds.12 mph53%29.65 "HgN/A
4:00 PM100 °FPassing clouds.16 mph33%29.65 "HgN/A
3:00 PM100 °FPassing clouds.12 mph33%29.65 "HgN/A
2:00 PM100 °FPassing clouds.12 mph31%29.68 "HgN/A
1:00 PM100 °FPassing clouds.14 mph33%29.71 "HgN/A
12:00 PM100 °FPassing clouds.12 mph35%29.71 "HgN/A
11:00 AM99 °FPassing clouds.7 mph33%29.74 "HgN/A
10:00 AM97 °FPassing clouds.5 mph44%29.74 "HgN/A
9:00 AM93 °FPassing clouds.No wind53%29.74 "HgN/A
8:00 AM90 °FPassing clouds.7 mph67%29.71 "HgN/A
7:00 AM90 °FPassing clouds.No wind67%29.71 "HgN/A
6:00 AM90 °FClear.No wind63%29.68 "Hg10 mi
5:00 AM90 °FClear.No wind63%29.68 "Hg10 mi
4:00 AM90 °FClear.No wind63%29.68 "Hg10 mi
3:00 AM91 °FClear.5 mph56%29.68 "Hg10 mi
2:00 AM91 °FClear.7 mph56%29.68 "Hg10 mi
1:00 AM91 °FPassing clouds.7 mph52%29.68 "HgN/A
12:00 AM95 °FPassing clouds.7 mph39%29.68 "HgN/A
11:00 PM
Wed, Aug 26
95 °FPassing clouds.7 mph39%29.65 "HgN/A
Weather by CustomWeather, © 2015

See weather overviewHow to use our weather pages